Location: *
(45.4590°N, 16.3650°E)
Time: 09:16:49
(UTC+00:00)

CORIOLIS - Pass Details

Date: 17 January 2020
Orbit: 818 x 839 km, 98.7° (Epoch: 17 February)

Event Time Altitude Azimuth Distance (km) Brightness Sun altitude
Rises 16:03:26 0° 154° (SSE) 3,359 7.3 -4.6°
Reaches altitude 10° 16:05:47 10° 151° (SSE) 2,427 6.6 -5.0°
Maximum altitude 16:11:05 63° 72° (ENE) 917 4.2 -5.8°
Drops below altitude 10° 16:16:24 10° 352° (N) 2,431 6.5 -6.7°
Sets 16:18:46 0° 349° (N) 3,365 7.2 -7.0°
